Weather History for Newburgh, NY

Change the Weather History Date:

Saturday, May 17, 2014

  Actual Average Record
Temperature  
Mean Temperature 57 °F -  
Max Temperature 64 °F 66 °F 88 °F (1974)
Min Temperature 50 °F 46 °F 32 °F (1983)
Degree Days  
Heating Degree Days 8    
Growing Degree Days 7 (Base 50)    
Moisture  
Dew Point 46 °F    
Average Humidity 67    
Maximum Humidity 100    
Minimum Humidity 40    
Precipitation  
Precipitation 0.00 in - - ()
Sea Level Pressure  
Sea Level Pressure 30.01 in    
Wind  
Wind Speed 10 mph (WNW)    
Max Wind Speed 16 mph    
Max Gust Speed 21 mph    
Visibility 15 miles    
Events      
Averages and records for this station are not official NWS values.
T = Trace of Precipitation, MM = Missing Value Source: NWS Daily Summary

Daily Weather History Graph

Daily Weather History Graph

Search for Another Location

Airport:

Trip Planner

Search our weather history database for the weather conditions in past years. The results will help you decide how hot, cold, wet, or windy it might be!

Date:

Astronomy

May. 17, 2014 Rise Set
Actual Time 5:35 AM EDT 8:10 PM EDT
Civil Twilight 5:03 AM EDT 8:42 PM EDT
Nautical Twilight 4:23 AM EDT 9:22 PM EDT
Astronomical Twilight 3:39 AM EDT 10:07 PM EDT
Moon 11:08 PM EDT (5/17) 8:15 AM EDT (5/17)
Length of Visible Light 15h 39m
Length of Day
14h 35m
Waning Gibbous, 89% of the Moon is Illuminated
May 17
Waning Gibbous
May 21
Last Quarter
May 28
New
Jun 5
First Quarter
Jun 13
Full

Hourly Weather History & Observations

Time (EDT) Temp. Dew Point Humidity Pressure Visibility Wind Dir Wind Speed Gust Speed Precip Events Conditions
12:45 AM 57.2 °F 55.4 °F 94% 29.86 in 7.0 mi West 11.5 mph - N/A   Mostly Cloudy
1:45 AM 57.2 °F 55.4 °F 94% 29.87 in 10.0 mi West 11.5 mph - N/A   Overcast
2:45 AM 51.8 °F 50.0 °F 94% 29.87 in 10.0 mi West 11.5 mph - N/A   Clear
4:45 AM 51.8 °F 51.8 °F 100% 29.87 in 3.0 mi West 11.5 mph - N/A   Overcast
5:45 AM 51.8 °F 51.8 °F 100% 29.95 in 5.0 mi West 11.5 mph - N/A   Overcast
6:45 AM 50.0 °F 48.2 °F 94% 29.97 in 15.0 mi WNW 6.9 mph - N/A   Scattered Clouds
7:45 AM 51.8 °F 48.2 °F 88% 29.99 in 15.0 mi West 8.1 mph - N/A   Scattered Clouds
8:45 AM 53.6 °F 48.2 °F 82% 30.01 in 20.0 mi WNW 11.5 mph - N/A   Scattered Clouds
9:45 AM 55.4 °F 46.4 °F 72% 30.00 in 20.0 mi West 9.2 mph - N/A   Scattered Clouds
10:45 AM 59.0 °F 44.6 °F 59% 30.01 in 20.0 mi West 13.8 mph - N/A   Partly Cloudy
11:45 AM 60.8 °F 44.6 °F 55% 30.02 in 20.0 mi WNW 11.5 mph 20.7 mph N/A   Unknown
12:45 PM 62.6 °F 44.6 °F 52% 30.02 in 20.0 mi WSW 11.5 mph 20.7 mph N/A   Partly Cloudy
1:45 PM 62.6 °F 46.4 °F 55% 30.02 in 20.0 mi West 5.8 mph 17.3 mph N/A   Scattered Clouds
2:45 PM 62.6 °F 42.8 °F 48% 30.03 in 20.0 mi WNW 11.5 mph 20.7 mph N/A   Mostly Cloudy
3:45 PM 64.4 °F 42.8 °F 45% 30.03 in 20.0 mi NW 10.4 mph 18.4 mph N/A   Scattered Clouds
4:45 PM 64.4 °F 42.8 °F 45% 30.03 in 20.0 mi WNW 11.5 mph - N/A   Scattered Clouds
5:45 PM 64.4 °F 39.2 °F 40% 30.03 in 20.0 mi WNW 16.1 mph - N/A   Scattered Clouds
6:45 PM 64.4 °F 41.0 °F 42% 30.04 in 20.0 mi WNW 13.8 mph - N/A   Scattered Clouds
7:45 PM 62.6 °F 41.0 °F 45% 30.06 in 10.0 mi West 5.8 mph - N/A   Scattered Clouds
8:45 PM 59.0 °F 42.8 °F 55% 30.08 in 10.0 mi NW 5.8 mph - N/A   Mostly Cloudy
9:45 PM 59.0 °F 42.8 °F 55% 30.11 in 10.0 mi NNW 5.8 mph - N/A   Mostly Cloudy
10:45 PM 57.2 °F 42.8 °F 59% 30.13 in 10.0 mi NNE 5.8 mph - N/A   Mostly Cloudy
11:45 PM 55.4 °F 42.8 °F 63% 30.14 in 10.0 mi NE 5.8 mph - N/A   Mostly Cloudy